Flag Weather past 2 weeks in Anderson, South Carolina, U.S.A.

Now
63 °F

Partly sunny.


Feels Like: 63 °F
Forecast: 52 / 69 °F
Wind: 12 mph from Southwest

Location: Anderson County Airport

Current Time: Nov 24, 2014 at 10:40:53 AM

Latest Report: Nov 24, 2014 at 10:04 AM


Visibility: 10 mi

Pressure: 29.82 "Hg

Humidity: 90%

Dew point: 60 °F

Location of AndersonLocation

Historic Weather in Anderson — Graph

°F

Anderson temperature yesterday

Maximum temperature yesterday: 53 °F (at 11:56 PM)
Minimum temperature yesterday: 43 °F (at 4:56 AM)
Average temperature yesterday: 47 °F

Past Weeks' High & Low Weather Summary

 TemperatureHumidityPressure
High77 °F (Nov 12, 2:56 PM)100% (Nov 23, 9:56 PM)30.54 "Hg (Nov 23, 9:56 PM)
Low20 °F (Nov 19, 6:56 AM)23% (Nov 21, 1:56 PM)29.69 "Hg (Nov 17, 1:56 PM)
Average46 °F62%30.13 "Hg
* Reported Nov 9 9:56 AM — Nov 24 9:00 AM, Anderson, Weather by CustomWeather, © 2014

Note: Actual official high and low records may vary slightly from our data, if they occured in-between our weather recording intervals... More about our weather records

Advertising

Anderson weather history for previous 24 hours

 ConditionsComfort  
Time TempWeatherWind HumidityBarometerVisibility
9:00 AM
Nov 24
59 °FFog.7 mph96%29.82 "Hg1 mi
7:56 AM58 °FSunny.7 mph97%29.78 "Hg10 mi
6:56 AM57 °FPartly cloudy.8 mph96%29.78 "Hg10 mi
5:56 AM59 °FMostly cloudy.9 mph93%29.78 "Hg10 mi
4:56 AM57 °FMostly cloudy.5 mph96%29.76 "Hg10 mi
3:56 AM58 °FMostly cloudy.7 mph97%29.77 "Hg10 mi
2:56 AM58 °FOvercast.9 mph93%29.76 "Hg10 mi
1:56 AM57 °FOvercast.14 mph96%29.76 "Hg10 mi
12:56 AM55 °FPassing clouds.9 mph96%29.75 "Hg10 mi
11:56 PM
Nov 23
53 °FOvercast.7 mph96%29.76 "Hg7 mi
10:56 PM48 °FFog.3 mph100%29.76 "Hg6 mi
9:56 PM50 °FMostly cloudy.No wind100%29.76 "Hg10 mi
9:04 PM48 °FFog.3 mph96%29.74 "Hg1 mi
8:56 PM49 °FFog.3 mph97%29.75 "Hg4 mi
7:56 PM51 °FPassing clouds.5 mph96%29.73 "Hg10 mi
6:56 PM50 °FRain. Fog.N/A96%29.78 "Hg4 mi
5:56 PM49 °FRain. Low clouds.8 mph97%29.75 "Hg7 mi
4:56 PM49 °FLight rain. Fog.7 mph97%29.81 "Hg5 mi
3:56 PM48 °FLight rain. Fog.12 mph96%29.83 "Hg5 mi
2:56 PM48 °FHeavy rain. Fog.9 mph93%29.86 "Hg2 mi
1:56 PM47 °FRain. Fog.13 mph97%29.91 "Hg2 mi
12:56 PM47 °FLight rain. Fog.12 mph97%29.97 "Hg3 mi
11:56 AM46 °FLight rain. Fog.8 mph96%30.01 "Hg4 mi
10:56 AM45 °FRain. Fog.16 mph97%30.07 "Hg5 mi
Weather by CustomWeather, © 2014

See weather overviewHow to use our weather pages